sat.trackr.live / text

‹ back to catalog

UNKNOWN

NORAD 81011

UNKNOWN UNKNOWN UNKNOWN

§ Identity

Operator
Country
Launch date
Launch site
Launch vehicle
Mass (kg)
RCS (m²)

External: N2YO · Heavens-Above

§ Orbital elements

Epoch: 2026-09-19T01:05:16.147392Z

Period
102.23 min
Inclination
99.3606°
Eccentricity
0.0134317
Mean motion
14.08647708 rev/d
Perigee alt
766.7 km
Apogee alt
961.3 km
Semi-major
7,242.1 km
B*
9.4841e-4
RAAN
287.3347°
Arg perigee
94.2318°
Mean anomaly
267.4212°
Rev number
2,296

§ Raw data

UNKNOWN1 81011U          26262.04532578  .00001727  00000+0  94841-3 0  99982 81011  99.3606 287.3347 0134317  94.2318 267.4212 14.08647708 22964

JSON: /api/v1/satellites/81011 · /tle

For live sub-satellite position, see the globe view (requires WebGL).

§ Visibility from observer

Set your observer location to see the next 7 days of passes ≥ 10°. The values pass through the URL so the page stays shareable.

No JS? Fill the form by hand. The geolocation button needs JavaScript.